Powrót do katalogu

FENGYUN 1C DEB

AktywnyPO
NORAD 31923·DEBRIS·🇨🇳 China

Wystrzelony May 10, 1999 z Taiyuan Satellite Launch Center

Loading…

Następne Przeloty (najbliższe 24 godziny)

TLE

ŚwieżeSource: Space-Track

Epoka: Sep 13, 2026, 02:52 UTC

1 31923U 99025CMA 26256.11960769  .00000577  00000-0  66750-3 0  9999
2 31923  98.4249 315.4036 0297129 308.4726  49.0097 13.55433286673519

Śledź FENGYUN 1C DEB w czasie rzeczywistym z AllMySat

Download on the App Store